This is the latest recevied weather packets stored in our database for station/object AD0YN. If no packets are shown the sender has not sent any weather packets the latest 10 day(s).
| Time | Temp. | Humidity | Pressure | Rain* | Wind** | Luminosity | Snow |
|---|---|---|---|---|---|---|---|
| 1778033630 | 10.56° C | 84% | 1011.9 hPa | 0 mm | - | 0 W/m² | - |
| 1778033326 | 10.56° C | 83% | 1011.6 hPa | 0 mm | - | 0 W/m² | - |
| 1778033025 | 10.56° C | 83% | 1011.7 hPa | 0 mm | - | 0 W/m² | - |
| 1778032722 | 10.56° C | 83% | 1011.5 hPa | 0 mm | - | 0 W/m² | - |
| 1778032419 | 10.56° C | 81% | 1011.6 hPa | 0 mm | - | 0 W/m² | - |
| 1778032116 | 10.56° C | 79% | 1011.5 hPa | 0 mm | - | 0 W/m² | - |
| 1778031813 | 10.56° C | 79% | 1011.4 hPa | 0 mm | - | 0 W/m² | - |
| 1778031509 | 10.56° C | 79% | 1011.6 hPa | 0 mm | - | 0 W/m² | - |
| 1778031207 | 10.56° C | 79% | 1011.7 hPa | 0 mm | - | 0 W/m² | - |
| 1778030903 | 11.11° C | 79% | 1011.5 hPa | 0 mm | - | 0 W/m² | - |
| 1778030600 | 11.11° C | 78% | 1011.4 hPa | 0 mm | - | 0 W/m² | - |
| 1778030298 | 11.11° C | 78% | 1011.5 hPa | 0 mm | - | 1 W/m² | - |
| 1778029994 | 11.11° C | 78% | 1011.7 hPa | 0 mm | - | 1 W/m² | - |
| 1778029691 | 11.11° C | 78% | 1011.5 hPa | 0 mm | - | 2 W/m² | - |
| 1778029389 | 11.11° C | 78% | 1011.5 hPa | 0 mm | - | 3 W/m² | - |
| 1778029086 | 11.11° C | 75% | 1011.3 hPa | 0 mm | - | 6 W/m² | - |
| 1778028783 | 11.11° C | 76% | 1010.9 hPa | 0 mm | - | 8 W/m² | - |
| 1778028479 | 11.67° C | 75% | 1011 hPa | 0 mm | - | 12 W/m² | - |
| 1778028177 | 11.67° C | 74% | 1010.9 hPa | 0 mm | - | 15 W/m² | - |
| 1778027872 | 11.67° C | 73% | 1010.9 hPa | 0 mm | - | 15 W/m² | - |
| 1778027569 | 11.67° C | 72% | 1010.5 hPa | 0 mm | - | 27 W/m² | - |
| 1778027265 | 11.67° C | 72% | 1010.7 hPa | 0 mm | - | 23 W/m² | - |
| 1778026962 | 11.67° C | 72% | 1011 hPa | 0 mm | - | 24 W/m² | - |
| 1778026657 | 11.67° C | 72% | 1010.7 hPa | 0 mm | - | 27 W/m² | - |
| 1778026355 | 11.67° C | 73% | 1010.9 hPa | 0 mm | - | 52 W/m² | - |
* Rain latest hour (hover to see other rain measurements)
** Current wind speed in m/s (hover to see current wind gust speed)